Location: Bernay
(48.6766°N, 2.9386°E)
Time: 14:27:32
(UTC+00:00)

MOS 1 Rocket - Pass Details

Date: 12 January 2026
Orbit: 608 x 815 km, 97.4° (Epoch: 9 February)

Event Time Altitude Azimuth Distance (km) Brightness Sun altitude
Rises 16:58:52 0° 156° (SSE) 3,322 6.8 -7.1°
Reaches altitude 10° 17:01:14 10° 154° (SSE) 2,385 6.1 -7.4°
Maximum altitude 17:06:29 66° 73° (ENE) 866 3.6 -8.2°
Drops below altitude 10° 17:11:34 10° 352° (N) 2,313 5.8 -9.0°
Sets 17:13:51 0° 350° (N) 3,215 6.6 -9.3°
